Home > Weather > Jaén > Past weeks

Flag for Spain Weather for the Past 2 Weeks in Jaén, Spain

Now
55 °F

Drizzle. Fog.


Feels Like: 54 °F
Forecast: 44 / 57 °F
Wind: 6 mph from West

Location: Granada / Aeropuerto

Current Time: Feb 13, 2016 at 4:51:29 PM

Latest Report: Feb 13, 2016 at 4:30 PM


Visibility: 2 mi

Pressure: 30.01 "Hg (28.05 "Hg at 565m altitude)

Humidity: 94%

Dew point: 54 °F

Location of JaénLocation

Historic Weather in Jaén — Graph

°F

Jaén Temperature Yesterday

Maximum temperature yesterday: 57 °F (at 9:30 PM)
Minimum temperature yesterday: 52 °F (at 7:00 AM)
Average temperature yesterday: 54 °F

High & Low Weather Summary for the Past Weeks

 TemperatureHumidityPressure
High72 °F (Feb 1, 4:00 PM)100% (Jan 30, 6:00 AM)30.57 "Hg (Jan 30, 6:00 AM)
Low32 °F (Jan 31, 6:00 AM)31% (Feb 1, 4:00 PM)30.04 "Hg (Feb 13, 6:00 AM)
Average52 °F74%30.31 "Hg
* Reported Jan 29 3:00 PM — Feb 13 3:30 PM, Jaén, Weather by CustomWeather, © 2016

Note: Actual official high and low records may vary slightly from our data, if they occured in-between our weather recording intervals... More about our weather records

Advertising

Jaén Weather History for the Previous 24 Hours

 ConditionsComfort  
Time TempWeatherWind HumidityBarometerVisibility
3:30 PM
Sat, Feb 13
55 °FDrizzle. Broken clouds.13 mph88%30.04 "Hg6 mi
3:00 PM57 °FPartly sunny.15 mph77%30.04 "HgN/A
2:30 PM59 °FPartly sunny.15 mph77%30.04 "HgN/A
2:00 PM59 °FBroken clouds.12 mph77%30.07 "HgN/A
1:30 PM57 °FScattered clouds.18 mph77%30.07 "HgN/A
1:00 PM59 °FScattered clouds.17 mph77%30.07 "HgN/A
12:30 PM59 °FScattered clouds.14 mph82%30.09 "HgN/A
12:00 PM59 °FScattered clouds.21 mph82%30.07 "HgN/A
11:30 AM57 °FScattered clouds.20 mph88%30.07 "HgN/A
11:00 AM57 °FBroken clouds.13 mph88%30.07 "HgN/A
10:30 AM55 °FDrizzle. Broken clouds.13 mph100%30.07 "HgN/A
10:00 AM55 °FDrizzle. Broken clouds.12 mph100%30.07 "Hg6 mi
9:30 AM54 °FDrizzle. Broken clouds.8 mph100%30.07 "Hg4 mi
9:00 AM54 °FDrizzle. Fog.8 mph100%30.07 "Hg2 mi
8:30 AM54 °FDrizzle. Fog.10 mph100%30.07 "Hg2 mi
8:00 AM54 °FFog.10 mph100%30.04 "Hg2 mi
7:30 AM54 °FPartly cloudy.13 mph94%30.04 "HgN/A
7:00 AM54 °FPartly cloudy.15 mph94%30.04 "HgN/A
6:30 AM54 °FPartly cloudy.12 mph100%30.04 "HgN/A
6:00 AM55 °FPassing clouds.12 mph88%30.04 "Hg6 mi
11:00 PM
Fri, Feb 12
57 °FLight rain. Partly cloudy.13 mph94%30.07 "Hg4 mi
10:30 PM57 °FLight rain. Fog.13 mph94%30.07 "Hg2 mi
10:00 PM57 °FDrizzle. Fog.14 mph94%30.09 "Hg3 mi
9:30 PM57 °FLight rain. Mostly cloudy.10 mph94%30.09 "Hg4 mi
9:00 PM55 °FLight rain. Fog.10 mph100%30.09 "Hg3 mi
8:30 PM55 °FDrizzle. Mostly cloudy.6 mph100%30.09 "Hg4 mi
8:00 PM55 °FDrizzle. Fog.2 mph100%30.09 "Hg3 mi
7:30 PM55 °FDrizzle. Fog.3 mph94%30.09 "Hg2 mi
7:00 PM55 °FDrizzle. Fog.7 mph94%30.09 "Hg2 mi
6:30 PM55 °FLight rain. Fog.6 mph100%30.09 "Hg3 mi
6:00 PM55 °FLight rain. Fog.2 mph94%30.09 "Hg3 mi
5:30 PM55 °FLight rain. Fog.2 mph94%30.09 "Hg2 mi
5:00 PM55 °FLight rain. Fog.3 mph94%30.09 "Hg2 mi
4:30 PM54 °FDrizzle. Fog.3 mph100%30.09 "Hg2 mi
4:00 PM54 °FDrizzle. Broken clouds.1 mph100%30.09 "Hg4 mi
Weather by CustomWeather, © 2016

See weather overviewHow to use our weather pages